Skip Page Navigation
NASA JPL Caltech
NASA Logo - Jet Propulsion Laboratory + View the NASA Portal
+ Center for Near-Earth Object Studies
JPL Home Earth Solar System Stars & Galaxies Technology
JPL Solar System Dynamics
BODIES ORBITS EPHEMERIDES TOOLS PHYSICAL DATA DISCOVERY FAQ SITE MAP
JPL Small-Body Database Browser
Search: [ help ]  
259325 (2003 FB72)
Classification: Main-belt Asteroid          SPK-ID: 2259325
Ephemeris | Orbit Diagram | Orbital Elements | Mission Design | Physical Parameters | Discovery Circumstances ]

[ show orbit diagram ]
Orbital Elements at Epoch 2459000.5 (2020-May-31.0) TDB
Reference: JPL 18 (heliocentric ecliptic J2000)
 Element Value Uncertainty (1-sigma)   Units 
e .1549286826953474 3.9387e-08  
a 2.697783038845701 2.2763e-08 au
q 2.279819066439485 1.0654e-07 au
i 12.98041222866693 6.2589e-06 deg
node 149.1587615372186 1.7673e-05 deg
peri 104.701927483253 2.7338e-05 deg
M 267.7587654035793 2.2876e-05 deg
tp 2459415.197639253225
(2021-Jul-19.69763925)
0.00010539 TDB
period 1618.486035929032
4.43
2.0485e-05
5.608e-08
d
yr
n .2224300933145557 2.8152e-09 deg/d
Q 3.115747011251916 2.629e-08 au
  Orbit Determination Parameters
   # obs. used (total)      417  
   data-arc span      6234 days (17.07 yr)  
   first obs. used      2003-03-26  
   last obs. used      2020-04-19  
   planetary ephem.      DE431  
   SB-pert. ephem.      SB431-N16  
   condition code      0  
   norm. resid. RMS      .60226  
   source      ORB  
   producer      Otto Matic  
   solution date      2020-May-21 14:48:56  

Additional Information
 Earth MOID = 1.30631 au 
 Jupiter MOID = 2.09283 au 
 T_jup = 3.315 
[ show covariance matrix ]

Ephemeris | Orbit Diagram | Orbital Elements | Mission Design | Physical Parameters | Discovery Circumstances ]

Physical Parameter Table
Parameter Symbol Value Units Sigma Reference Notes
absolute magnitude H 15.6   n/a MPO437204  

259325 (2003 FB72)          Discovered 2003-Mar-26 by NEAT at Haleakala
Reference: 20110119/Numbers.arcLast Updated: 2011-01-25

Alternate Designations
 2003 FB72 = 2004 PK75 
Ephemeris | Orbit Diagram | Orbital Elements | Mission Design | Physical Parameters | Discovery Circumstances ]
ABOUT SSD CREDITS/AWARDS PRIVACY/COPYRIGHT GLOSSARY LINKS
FirstGov 2021-Jan-22 21:35 UT
(server date/time)  
NASA Home Page
Site Manager:   Ryan S. Park
Webmaster  Alan B. Chamberlin